Regional Weather Roundup
Issued by NWS

Home | Current Version | Previous Version | Text Only | Print | Product List | Glossary On
Versions: 1 2 3 4 5 6 7 8 9 10 11 12 13 14 15 16 17 18 19 20 21 22 23 24 25 26 27 28 29 30 31 32 33 34 35 36 37 38 39 40 41 42 43 44 45 46 47 48 49 50
000
ASUS46 KPQR 281710
RWROR

OREGON REGIONAL WEATHER ROUNDUP
NATIONAL WEATHER SERVICE PORTLAND OR
1000 AM PDT SUN MAY 28 2017

NOTE: "FAIR" INDICATES FEW OR NO CLOUDS BELOW 12,000 FEET WITH
NO SIGNIFICANT WEATHER AND/OR OBSTRUCTIONS TO VISIBILITY.

ORZ001>013-281800-
NORTHWEST OREGON


CITY           SKY/WX    TMP DP  RH WIND       PRES   REMARKS
ASTORIA        CLOUDY    54  49  83 CALM      30.14R
NEWPORT        CLOUDY    54  52  94 CALM      30.18S
PORTLAND       SUNNY     63  52  67 NW7       30.10F
VANCOUVER WA   SUNNY     64  54  69 VRB3      30.10F
SCAPPOOSE      SUNNY     63  55  75 E3        30.10S
HILLSBORO      SUNNY     66  55  67 W5        30.10F
AURORA         MOSUNNY   63  52  67 S8        30.12F
MCMINNVILLE    SUNNY     61  51  70 VRB3      30.12F
SALEM          PTSUNNY   59  51  75 SW6       30.12S
CORVALLIS      CLOUDY    57  50  77 CALM      30.15R
EUGENE         CLOUDY    54  52  93 S7        30.14F
$$

ORZ021-028-281800-
SOUTHWEST OREGON


CITY           SKY/WX    TMP DP  RH WIND       PRES   REMARKS
NORTH BEND     CLOUDY    55  54  94 W5        30.17F
BROOKINGS      CLOUDY    51  49  92 W7        30.16S
ROSEBURG       CLOUDY    56  51  84 CALM      30.13F
SEXTON SUMMIT  SUNNY     65  52  62 SE5       30.16R
MEDFORD        SUNNY     71  52  50 CALM      30.08F
$$

ORZ014>016-041-281800-
COLUMBIA GORGE


CITY           SKY/WX    TMP DP  RH WIND       PRES   REMARKS
TROUTDALE      SUNNY     65  54  67 NW7       30.09F
HOOD RIVER     SUNNY     70  46  43 CALM      30.10F
THE DALLES     SUNNY     72  48  42 CALM      30.09F
$$

ORZ029>031-041-044-049-050-061>064-502-503-505>511-281800-
EASTERN OREGON


CITY           SKY/WX    TMP DP  RH WIND       PRES   REMARKS
REDMOND        SUNNY     73  33  23 CALM      30.17F
BEND           SUNNY     70  37  30 CALM      30.13F
PRINEVILLE     SUNNY     72  37  28 E7        30.18F
KLAMATH FALLS  SUNNY     68  45  43 E3        30.19F
HERMISTON      SUNNY     73  46  38 W3        30.10F
PENDLETON      SUNNY     75  49  39 W3        30.12S
JOHN DAY       SUNNY     72  41  32 CALM      30.21S
MEACHAM        SUNNY     73  36  25 VRB3      30.21S
LA GRANDE      SUNNY     66  45  45 CALM      30.20F
BAKER CITY     SUNNY     67  45  45 CALM      30.22F
BURNS          SUNNY     70  35  27 NE7       30.24S
ROME             N/A     71  32  23 MISG      30.22F
ONTARIO        SUNNY     70  45  40 VRB3      30.21F
$$



USA.gov is the U.S. government's official web portal to all federal, state and local government web resources and services.